GPS BIIRM-4 (PRN 15)

Last updated on Sun Dec 07 2025 00:03:19 GMT+0000 (Coordinated Universal Time)

1 32260U 07047A 25340.27202766 -.00000023 00000+0 00000+0 0 9991 2 32260 53.9509 88.0257 0164333 85.1745 276.6803 2.00564670132947
UTC large
Height (km)
Speed (km/s)
/
Latitude / Longitude
Inclination (degrees)
Orbital Period (minutes)
Azimuth
Elevation
Range (km)
Doppler Factor

Next 0 passes for location: London (51.5072 / 0.1276)

Sorry there are no passes over London.